UAE385D VHHH-VTBS

Flight info

Callsign UAE385D
Flight time 2h 19m
Altitude 40000
Route PECAN V10 SIKOU/K0904S1220 A202 ASSAD/K0896F400 A202 VILAO/N0483F400 A202 RAMEI W42 PAKRI Y13 RUKSA
Aircraft A388/J-SADE3GHIJ1J2J3J4J5M1P2RWXYZ/LB1D1

Departure

Time 2026-05-06 12:18
Airport Hong Kong International Airport (VHHH)

Arrival

Time 2026-05-06 14:38
Airport Suvarnabhumi Airport (VTBS)
Time Latitude Longitude Altitude Speed Heading
2026-05-06 11:36 22.31512 113.92488 37 ft 0 kts 206°
2026-05-06 12:02 22.31520 113.92492 36 ft 4 kts 206°
2026-05-06 12:02 22.31545 113.92505 34 ft 4 kts 206°
2026-05-06 12:03 22.31564 113.92515 34 ft 4 kts 209°
2026-05-06 12:03 22.31582 113.92530 34 ft 4 kts 238°
2026-05-06 12:03 22.31586 113.92546 35 ft 4 kts 283°
2026-05-06 12:03 22.31577 113.92568 33 ft 4 kts 296°
2026-05-06 12:04 22.31566 113.92592 34 ft 2 kts 296°
2026-05-06 12:04 22.31566 113.92593 34 ft 0 kts 296°
2026-05-06 12:07 22.31577 113.92566 33 ft 9 kts 296°
2026-05-06 12:07 22.31613 113.92488 37 ft 0 kts 296°
2026-05-06 12:07 22.31618 113.92475 37 ft 6 kts 296°
2026-05-06 12:07 22.31641 113.92409 37 ft 12 kts 277°
2026-05-06 12:08 22.31627 113.92320 37 ft 13 kts 252°
2026-05-06 12:08 22.31593 113.92212 37 ft 17 kts 251°
2026-05-06 12:08 22.31562 113.92115 37 ft 11 kts 250°
2026-05-06 12:08 22.31512 113.92068 37 ft 9 kts 180°
2026-05-06 12:09 22.31432 113.92091 37 ft 15 kts 160°
2026-05-06 12:09 22.31319 113.92135 37 ft 18 kts 160°
2026-05-06 12:09 22.31202 113.92179 37 ft 16 kts 161°
2026-05-06 12:09 22.31100 113.92216 37 ft 16 kts 161°
2026-05-06 12:10 22.30999 113.92253 37 ft 15 kts 161°
2026-05-06 12:10 22.30893 113.92292 37 ft 15 kts 161°
2026-05-06 12:10 22.30798 113.92327 37 ft 4 kts 160°
2026-05-06 12:10 22.30738 113.92329 37 ft 10 kts 208°
2026-05-06 12:11 22.30693 113.92276 37 ft 12 kts 247°
2026-05-06 12:11 22.30662 113.92173 37 ft 17 kts 253°
2026-05-06 12:11 22.30623 113.92039 37 ft 18 kts 251°
2026-05-06 12:11 22.30584 113.91921 37 ft 19 kts 250°
2026-05-06 12:12 22.30537 113.91777 37 ft 22 kts 250°
2026-05-06 12:12 22.30484 113.91616 37 ft 24 kts 250°
2026-05-06 12:12 22.30450 113.91512 37 ft 15 kts 251°
2026-05-06 12:12 22.30407 113.91377 37 ft 18 kts 251°
2026-05-06 12:13 22.30363 113.91241 37 ft 19 kts 251°
2026-05-06 12:13 22.30315 113.91091 37 ft 23 kts 251°
2026-05-06 12:13 22.30262 113.90924 37 ft 22 kts 251°
2026-05-06 12:13 22.30207 113.90756 37 ft 25 kts 251°
2026-05-06 12:14 22.30152 113.90585 37 ft 25 kts 250°
2026-05-06 12:14 22.30107 113.90448 37 ft 17 kts 250°
2026-05-06 12:14 22.30064 113.90314 37 ft 21 kts 250°
2026-05-06 12:14 22.30012 113.90156 37 ft 24 kts 250°
2026-05-06 12:15 22.29968 113.90019 37 ft 18 kts 251°
2026-05-06 12:15 22.29928 113.89894 37 ft 14 kts 251°
2026-05-06 12:15 22.29895 113.89790 37 ft 6 kts 249°
2026-05-06 12:15 22.29880 113.89762 37 ft 8 kts 230°
2026-05-06 12:16 22.29836 113.89739 37 ft 9 kts 180°
2026-05-06 12:16 22.29777 113.89753 37 ft 9 kts 161°
2026-05-06 12:16 22.29753 113.89762 37 ft 0 kts 161°
2026-05-06 12:16 22.29739 113.89767 37 ft 7 kts 162°
2026-05-06 12:17 22.29657 113.89796 35 ft 14 kts 161°
2026-05-06 12:17 22.29631 113.89822 35 ft 3 kts 79°
2026-05-06 12:17 22.29639 113.89858 35 ft 1 kts 75°
2026-05-06 12:17 22.29640 113.89860 35 ft 4 kts 75°
2026-05-06 12:18 22.29698 113.90044 35 ft 61 kts 71°
2026-05-06 12:18 22.29925 113.90750 36 ft 133 kts 71°
2026-05-06 12:18 22.30277 113.91837 172 ft 163 kts 72°
2026-05-06 12:18 22.30650 113.92957 824 ft 157 kts 71°
2026-05-06 12:19 22.31021 113.94069 1463 ft 157 kts 73°
2026-05-06 12:19 22.31375 113.95157 2076 ft 156 kts 73°
2026-05-06 12:19 22.31744 113.96300 2668 ft 163 kts 73°
2026-05-06 12:19 22.32142 113.97468 3293 ft 172 kts 73°
2026-05-06 12:20 22.32550 113.98778 3562 ft 195 kts 73°
2026-05-06 12:20 22.32992 114.00229 3821 ft 214 kts 73°
2026-05-06 12:20 22.33482 114.01850 4313 ft 232 kts 72°
2026-05-06 12:20 22.33844 114.03562 5105 ft 237 kts 91°
2026-05-06 12:21 22.33597 114.05303 6014 ft 237 kts 112°
2026-05-06 12:21 22.32771 114.06844 6826 ft 239 kts 134°
2026-05-06 12:21 22.31470 114.07993 7472 ft 250 kts 153°
2026-05-06 12:21 22.29795 114.08673 7955 ft 263 kts 173°
2026-05-06 12:22 22.27982 114.08746 8692 ft 267 kts 185°
2026-05-06 12:22 22.26046 114.08687 9093 ft 288 kts 184°
2026-05-06 12:22 22.24010 114.08664 9805 ft 294 kts 183°
2026-05-06 12:22 22.21939 114.08667 10346 ft 306 kts 183°
2026-05-06 12:23 22.19722 114.08674 10534 ft 328 kts 183°
2026-05-06 12:23 22.17364 114.08683 10744 ft 348 kts 182°
2026-05-06 12:23 22.14914 114.08695 11302 ft 354 kts 182°
2026-05-06 12:23 22.12431 114.08707 11937 ft 358 kts 182°
2026-05-06 12:24 22.09928 114.08716 12580 ft 363 kts 182°
2026-05-06 12:24 22.07386 114.08725 13208 ft 367 kts 182°
2026-05-06 12:24 22.04813 114.08732 13834 ft 372 kts 182°
2026-05-06 12:24 22.02213 114.08740 14467 ft 374 kts 182°
2026-05-06 12:25 21.99642 114.08747 15107 ft 375 kts 182°
2026-05-06 12:25 21.97020 114.08755 15734 ft 378 kts 182°
2026-05-06 12:25 21.94383 114.08762 16349 ft 380 kts 182°
2026-05-06 12:25 21.91731 114.08770 16958 ft 382 kts 182°
2026-05-06 12:26 21.89058 114.08777 17575 ft 384 kts 182°
2026-05-06 12:26 21.86382 114.08784 18218 ft 385 kts 182°
2026-05-06 12:26 21.83682 114.08791 18720 ft 388 kts 182°
2026-05-06 12:26 21.80971 114.08798 19215 ft 390 kts 182°
2026-05-06 12:27 21.78245 114.08806 19681 ft 393 kts 182°
2026-05-06 12:27 21.75488 114.08814 20162 ft 395 kts 182°
2026-05-06 12:27 21.72728 114.08822 20656 ft 398 kts 182°
2026-05-06 12:27 21.69953 114.08830 21124 ft 400 kts 182°
2026-05-06 12:28 21.67158 114.08837 21596 ft 402 kts 183°
2026-05-06 12:28 21.64367 114.08665 22058 ft 402 kts 190°
2026-05-06 12:28 21.61618 114.08115 22514 ft 402 kts 197°
2026-05-06 12:28 21.58927 114.07387 22952 ft 404 kts 197°
2026-05-06 12:29 21.56186 114.06668 23421 ft 407 kts 196°
2026-05-06 12:29 21.53425 114.05954 23799 ft 409 kts 196°
2026-05-06 12:29 21.50635 114.05234 24146 ft 413 kts 196°
2026-05-06 12:29 21.47832 114.04509 24499 ft 415 kts 197°
2026-05-06 12:30 21.45074 114.03586 24840 ft 416 kts 204°
2026-05-06 12:30 21.42431 114.02314 25185 ft 417 kts 210°
2026-05-06 12:30 21.39931 114.00720 25544 ft 418 kts 216°
2026-05-06 12:30 21.37532 113.98987 25891 ft 421 kts 216°
2026-05-06 12:31 21.35087 113.97251 26259 ft 424 kts 216°
2026-05-06 12:31 21.32613 113.95505 26633 ft 427 kts 216°
2026-05-06 12:31 21.30115 113.93745 27007 ft 430 kts 215°
2026-05-06 12:31 21.27601 113.91971 27420 ft 433 kts 215°
2026-05-06 12:32 21.25075 113.90189 27830 ft 436 kts 216°
2026-05-06 12:32 21.22530 113.88393 28260 ft 440 kts 216°
2026-05-06 12:32 21.19965 113.86583 28704 ft 443 kts 216°
2026-05-06 12:32 21.17379 113.84760 29141 ft 447 kts 216°
2026-05-06 12:33 21.14766 113.82918 29608 ft 450 kts 216°
2026-05-06 12:33 21.12158 113.81037 30057 ft 453 kts 220°
2026-05-06 12:33 21.09862 113.78741 30464 ft 453 kts 231°
2026-05-06 12:33 21.08048 113.75992 30892 ft 453 kts 243°
2026-05-06 12:34 21.06769 113.72909 31246 ft 455 kts 253°
2026-05-06 12:34 21.05751 113.69680 31636 ft 459 kts 252°
2026-05-06 12:34 21.04711 113.66440 32099 ft 461 kts 252°
2026-05-06 12:34 21.03657 113.63184 32529 ft 464 kts 252°
2026-05-06 12:35 21.02595 113.59910 32921 ft 468 kts 252°
2026-05-06 12:35 21.01713 113.56587 33312 ft 470 kts 261°
2026-05-06 12:35 21.01366 113.53117 33719 ft 472 kts 266°
2026-05-06 12:35 21.01108 113.49605 34097 ft 475 kts 266°
2026-05-06 12:36 21.00846 113.46073 34480 ft 477 kts 266°
2026-05-06 12:36 21.00577 113.42529 34919 ft 478 kts 266°
2026-05-06 12:36 21.00302 113.38989 35455 ft 476 kts 266°
2026-05-06 12:36 21.00024 113.35455 36017 ft 475 kts 266°
2026-05-06 12:37 20.99746 113.31935 36573 ft 473 kts 266°
2026-05-06 12:37 20.99468 113.28437 37123 ft 471 kts 266°
2026-05-06 12:37 20.99189 113.24945 37661 ft 469 kts 266°
2026-05-06 12:37 20.98912 113.21471 38193 ft 468 kts 266°
2026-05-06 12:38 20.98638 113.18056 38695 ft 466 kts 266°
2026-05-06 12:38 20.98361 113.14598 39113 ft 465 kts 266°
2026-05-06 12:38 20.98084 113.11154 39513 ft 464 kts 266°
2026-05-06 12:38 20.97806 113.07711 39900 ft 464 kts 266°
2026-05-06 12:39 20.97246 113.00791 39936 ft 464 kts 266°
2026-05-06 12:39 20.96685 112.93901 39937 ft 465 kts 266°
2026-05-06 12:40 20.96121 112.87005 39937 ft 466 kts 266°
2026-05-06 12:40 20.95552 112.80085 39932 ft 466 kts 266°
2026-05-06 12:41 20.94985 112.73222 39936 ft 465 kts 266°
2026-05-06 12:41 20.94411 112.66315 39930 ft 465 kts 266°
2026-05-06 12:42 20.93934 112.60588 39928 ft 465 kts 266°
2026-05-06 12:42 20.93357 112.53699 39924 ft 464 kts 266°
2026-05-06 12:43 20.92778 112.46822 39921 ft 464 kts 266°
2026-05-06 12:43 20.92102 112.38830 39920 ft 464 kts 266°
2026-05-06 12:44 20.91615 112.33114 39910 ft 464 kts 266°
2026-05-06 12:44 20.91026 112.26204 40034 ft 470 kts 266°
2026-05-06 12:45 20.90429 112.19255 40025 ft 466 kts 266°
2026-05-06 12:46 20.89536 112.08908 40025 ft 465 kts 266°
2026-05-06 12:46 20.88937 112.02012 40025 ft 465 kts 266°
2026-05-06 12:47 20.88340 111.95166 40024 ft 465 kts 266°
2026-05-06 12:47 20.87734 111.88252 40021 ft 465 kts 266°
2026-05-06 12:48 20.87128 111.81368 40021 ft 465 kts 266°
2026-05-06 12:48 20.86518 111.74474 40026 ft 465 kts 266°
2026-05-06 12:49 20.85910 111.67631 40024 ft 465 kts 266°
2026-05-06 12:49 20.85296 111.60755 40024 ft 464 kts 266°
2026-05-06 12:50 20.84636 111.53881 40021 ft 465 kts 263°
2026-05-06 12:50 20.83273 111.47113 40019 ft 466 kts 255°
2026-05-06 12:51 20.81150 111.40549 40021 ft 467 kts 252°
2026-05-06 12:51 20.78976 111.34052 40017 ft 467 kts 252°
2026-05-06 12:52 20.76781 111.27496 40017 ft 467 kts 252°
2026-05-06 12:52 20.74580 111.20948 40018 ft 468 kts 252°
2026-05-06 12:53 20.72386 111.14433 40023 ft 468 kts 252°
2026-05-06 12:53 20.70181 111.07896 40023 ft 468 kts 252°
2026-05-06 12:54 20.67970 111.01352 40021 ft 468 kts 252°
2026-05-06 12:54 20.65757 110.94810 40017 ft 468 kts 252°
2026-05-06 12:55 20.63562 110.88320 40020 ft 468 kts 252°
2026-05-06 12:55 20.61367 110.81774 40010 ft 468 kts 252°
2026-05-06 12:56 20.59172 110.75231 40004 ft 468 kts 252°
2026-05-06 12:56 20.56969 110.68685 40007 ft 468 kts 252°
2026-05-06 12:57 20.54762 110.62138 40008 ft 468 kts 252°
2026-05-06 12:57 20.52534 110.55602 40006 ft 469 kts 250°
2026-05-06 12:58 20.49689 110.49377 40013 ft 472 kts 242°
2026-05-06 12:58 20.45966 110.43559 40012 ft 476 kts 234°
2026-05-06 12:59 20.41761 110.38082 40014 ft 477 kts 233°
2026-05-06 12:59 20.37569 110.32584 40016 ft 477 kts 233°
2026-05-06 13:00 20.33398 110.27126 40017 ft 478 kts 233°
2026-05-06 13:00 20.29203 110.21641 40016 ft 477 kts 234°
2026-05-06 13:01 20.25058 110.16106 40008 ft 477 kts 234°
2026-05-06 13:01 20.20919 110.10565 40003 ft 477 kts 234°
2026-05-06 13:02 20.16775 110.05037 40002 ft 478 kts 234°
2026-05-06 13:02 20.12620 109.99505 40003 ft 478 kts 234°
2026-05-06 13:03 20.08490 109.94012 40005 ft 478 kts 233°
2026-05-06 13:03 20.04333 109.88488 40001 ft 478 kts 233°
2026-05-06 13:04 20.00170 109.82962 39996 ft 478 kts 233°
2026-05-06 13:04 19.96009 109.77442 39992 ft 478 kts 233°
2026-05-06 13:05 19.91841 109.71919 39993 ft 478 kts 233°
2026-05-06 13:05 19.87670 109.66397 39990 ft 479 kts 233°
2026-05-06 13:06 19.83522 109.60912 39989 ft 479 kts 233°
2026-05-06 13:06 19.79344 109.55390 39990 ft 479 kts 233°
2026-05-06 13:07 19.75168 109.49876 39990 ft 479 kts 233°
2026-05-06 13:07 19.70989 109.44365 39995 ft 479 kts 233°
2026-05-06 13:08 19.66811 109.38859 39990 ft 479 kts 233°
2026-05-06 13:08 19.62627 109.33352 39989 ft 479 kts 233°
2026-05-06 13:09 19.58468 109.27882 39991 ft 479 kts 233°
2026-05-06 13:09 19.54280 109.22377 39989 ft 479 kts 233°
2026-05-06 13:10 19.50081 109.16873 39988 ft 479 kts 233°
2026-05-06 13:10 19.45861 109.11405 39989 ft 479 kts 233°
2026-05-06 13:11 19.41644 109.05945 39989 ft 479 kts 233°
2026-05-06 13:11 19.37427 109.00483 39989 ft 479 kts 233°
2026-05-06 13:12 19.33207 108.95023 39985 ft 479 kts 233°
2026-05-06 13:12 19.29011 108.89598 39989 ft 479 kts 233°
2026-05-06 13:13 19.24769 108.84116 39983 ft 479 kts 232°
2026-05-06 13:13 19.20542 108.78660 39986 ft 479 kts 232°
2026-05-06 13:14 19.16311 108.73201 39990 ft 479 kts 232°
2026-05-06 13:14 19.12086 108.67755 39971 ft 480 kts 232°
2026-05-06 13:15 19.07873 108.62330 39981 ft 480 kts 232°
2026-05-06 13:15 19.03629 108.56870 39981 ft 480 kts 232°
2026-05-06 13:16 18.99378 108.51405 39982 ft 481 kts 232°
2026-05-06 13:16 18.95122 108.45939 39983 ft 481 kts 232°
2026-05-06 13:17 18.90868 108.40481 39985 ft 481 kts 232°
2026-05-06 13:17 18.86632 108.35051 39985 ft 481 kts 232°
2026-05-06 13:18 18.82361 108.29580 39976 ft 481 kts 232°
2026-05-06 13:18 18.78122 108.24155 39979 ft 482 kts 232°
2026-05-06 13:19 18.73852 108.18696 39991 ft 482 kts 232°
2026-05-06 13:19 18.69586 108.13246 39991 ft 482 kts 232°
2026-05-06 13:20 18.65306 108.07783 39995 ft 482 kts 232°
2026-05-06 13:20 18.61028 108.02328 39985 ft 482 kts 232°
2026-05-06 13:21 18.56794 107.96933 39883 ft 481 kts 232°
2026-05-06 13:21 18.52507 107.91475 39886 ft 483 kts 232°
2026-05-06 13:22 18.48220 107.86022 39886 ft 483 kts 232°
2026-05-06 13:22 18.43930 107.80570 39883 ft 483 kts 232°
2026-05-06 13:23 18.39638 107.75119 39885 ft 483 kts 232°
2026-05-06 13:23 18.35372 107.69704 39887 ft 482 kts 233°
2026-05-06 13:24 18.31569 107.63900 39883 ft 480 kts 239°
2026-05-06 13:24 18.28003 107.57969 39877 ft 480 kts 239°
2026-05-06 13:25 18.24413 107.52036 39879 ft 480 kts 239°
2026-05-06 13:25 18.20843 107.46140 39874 ft 480 kts 239°
2026-05-06 13:26 18.17255 107.40218 39876 ft 480 kts 239°
2026-05-06 13:26 18.13661 107.34290 39883 ft 480 kts 239°
2026-05-06 13:27 18.10097 107.28419 39886 ft 479 kts 239°
2026-05-06 13:27 18.06511 107.22516 39885 ft 479 kts 239°
2026-05-06 13:28 18.02915 107.16610 39882 ft 479 kts 239°
2026-05-06 13:28 17.99319 107.10712 39882 ft 479 kts 239°
2026-05-06 13:29 17.95724 107.04820 39883 ft 479 kts 238°
2026-05-06 13:29 17.92130 106.98934 39889 ft 478 kts 238°
2026-05-06 13:30 17.88535 106.93052 39886 ft 478 kts 238°
2026-05-06 13:30 17.85557 106.88162 39888 ft 478 kts 239°
2026-05-06 13:31 17.81400 106.81314 39886 ft 478 kts 239°
2026-05-06 13:31 17.77821 106.75430 39885 ft 478 kts 239°
2026-05-06 13:32 17.74847 106.70547 39887 ft 477 kts 238°
2026-05-06 13:32 17.71266 106.64672 39883 ft 477 kts 238°
2026-05-06 13:33 17.67685 106.58805 39886 ft 478 kts 238°
2026-05-06 13:33 17.64093 106.52941 39888 ft 478 kts 238°
2026-05-06 13:34 17.60489 106.47070 39890 ft 478 kts 238°
2026-05-06 13:34 17.56912 106.41243 39904 ft 479 kts 238°
2026-05-06 13:35 17.53305 106.35375 39909 ft 479 kts 238°
2026-05-06 13:35 17.49693 106.29502 39917 ft 479 kts 238°
2026-05-06 13:36 17.46081 106.23634 39924 ft 478 kts 238°
2026-05-06 13:36 17.42469 106.17772 39927 ft 478 kts 238°
2026-05-06 13:37 17.38861 106.11920 39918 ft 478 kts 238°
2026-05-06 13:37 17.35283 106.06109 39920 ft 478 kts 238°
2026-05-06 13:38 17.31726 106.00222 39925 ft 478 kts 238°
2026-05-06 13:38 17.28176 105.94345 39922 ft 478 kts 238°
2026-05-06 13:39 17.24609 105.88459 39903 ft 478 kts 238°
2026-05-06 13:39 17.21046 105.82589 39906 ft 478 kts 238°
2026-05-06 13:40 17.17485 105.76728 39894 ft 478 kts 238°
2026-05-06 13:40 17.13936 105.70892 39894 ft 478 kts 238°
2026-05-06 13:41 17.10370 105.65031 39889 ft 478 kts 238°
2026-05-06 13:41 17.06803 105.59173 39881 ft 478 kts 238°
2026-05-06 13:42 17.03227 105.53307 39883 ft 478 kts 238°
2026-05-06 13:42 16.99648 105.47441 39884 ft 478 kts 238°
2026-05-06 13:43 16.96064 105.41570 39889 ft 479 kts 238°
2026-05-06 13:43 16.92478 105.35700 39886 ft 479 kts 238°
2026-05-06 13:44 16.88914 105.29873 39886 ft 479 kts 238°
2026-05-06 13:44 16.85325 105.24008 39886 ft 479 kts 238°
2026-05-06 13:45 16.81720 105.18132 39875 ft 480 kts 238°
2026-05-06 13:45 16.76310 105.09327 39891 ft 481 kts 238°
2026-05-06 13:46 16.72693 105.03445 39898 ft 481 kts 238°
2026-05-06 13:46 16.69071 104.97560 39894 ft 482 kts 238°
2026-05-06 13:47 16.65470 104.91714 39892 ft 482 kts 238°
2026-05-06 13:47 16.61843 104.85830 39892 ft 482 kts 238°
2026-05-06 13:48 16.58219 104.79957 39891 ft 481 kts 238°
2026-05-06 13:48 16.54226 104.74360 39889 ft 482 kts 229°
2026-05-06 13:49 16.49734 104.69165 39881 ft 482 kts 229°
2026-05-06 13:49 16.45260 104.63954 39886 ft 482 kts 229°
2026-05-06 13:50 16.40786 104.58747 39885 ft 482 kts 229°
2026-05-06 13:50 16.36333 104.53572 39880 ft 482 kts 229°
2026-05-06 13:51 16.31855 104.48373 39886 ft 483 kts 229°
2026-05-06 13:51 16.27370 104.43169 39890 ft 483 kts 229°
2026-05-06 13:52 16.22846 104.37967 39878 ft 483 kts 228°
2026-05-06 13:52 16.18341 104.32831 39867 ft 483 kts 228°
2026-05-06 13:53 16.13810 104.27661 39866 ft 484 kts 228°
2026-05-06 13:53 16.09273 104.22483 39867 ft 484 kts 228°
2026-05-06 13:54 16.04742 104.17311 39870 ft 483 kts 229°
2026-05-06 13:54 16.00271 104.12096 39863 ft 483 kts 229°
2026-05-06 13:55 15.95834 104.06903 39859 ft 483 kts 229°
2026-05-06 13:55 15.91357 104.01682 39858 ft 483 kts 229°
2026-05-06 13:56 15.86888 103.96478 39849 ft 482 kts 229°
2026-05-06 13:56 15.82413 103.91273 39852 ft 482 kts 229°
2026-05-06 13:57 15.77941 103.86074 39853 ft 483 kts 229°
2026-05-06 13:57 15.73463 103.80871 39855 ft 483 kts 229°
2026-05-06 13:58 15.69012 103.75704 39862 ft 483 kts 229°
2026-05-06 13:58 15.64534 103.70509 39863 ft 483 kts 229°
2026-05-06 13:59 15.60057 103.65319 39863 ft 483 kts 229°
2026-05-06 13:59 15.55570 103.60122 39866 ft 483 kts 229°
2026-05-06 14:00 15.51078 103.54922 39872 ft 483 kts 229°
2026-05-06 14:00 15.46597 103.49738 39872 ft 482 kts 229°
2026-05-06 14:01 15.42134 103.44579 39865 ft 483 kts 229°
2026-05-06 14:01 15.37645 103.39394 39862 ft 483 kts 229°
2026-05-06 14:02 15.33159 103.34215 39859 ft 483 kts 229°
2026-05-06 14:02 15.28691 103.29060 39856 ft 483 kts 229°
2026-05-06 14:03 15.24199 103.23882 39851 ft 483 kts 229°
2026-05-06 14:03 15.19707 103.18708 39857 ft 483 kts 229°
2026-05-06 14:04 15.15209 103.13530 39862 ft 483 kts 229°
2026-05-06 14:04 15.10716 103.08361 39882 ft 483 kts 228°
2026-05-06 14:05 15.06119 103.03355 39878 ft 483 kts 223°
2026-05-06 14:05 15.00851 102.99026 39878 ft 484 kts 214°
2026-05-06 14:06 14.95086 102.95410 39880 ft 484 kts 211°
2026-05-06 14:06 14.89708 102.91274 39878 ft 482 kts 226°
2026-05-06 14:07 14.85728 102.85731 39875 ft 481 kts 243°
2026-05-06 14:07 14.83358 102.79353 39608 ft 475 kts 252°
2026-05-06 14:08 14.82375 102.76106 39374 ft 473 kts 252°
2026-05-06 14:08 14.81378 102.72854 39143 ft 474 kts 252°
2026-05-06 14:08 14.80381 102.69614 38916 ft 474 kts 252°
2026-05-06 14:08 14.79378 102.66356 38687 ft 475 kts 252°
2026-05-06 14:09 14.78376 102.63100 38451 ft 476 kts 252°
2026-05-06 14:09 14.77373 102.59840 38174 ft 476 kts 252°
2026-05-06 14:09 14.76366 102.56568 37906 ft 477 kts 252°
2026-05-06 14:09 14.75358 102.53295 37672 ft 479 kts 252°
2026-05-06 14:10 14.74347 102.50014 37411 ft 480 kts 252°
2026-05-06 14:10 14.73336 102.46732 37152 ft 481 kts 252°
2026-05-06 14:10 14.72317 102.43429 36899 ft 482 kts 252°
2026-05-06 14:10 14.71296 102.40118 36655 ft 483 kts 252°
2026-05-06 14:11 14.70286 102.36848 36404 ft 485 kts 252°
2026-05-06 14:11 14.69260 102.33525 36158 ft 486 kts 252°
2026-05-06 14:11 14.68229 102.30188 35926 ft 487 kts 252°
2026-05-06 14:11 14.67198 102.26854 35696 ft 488 kts 252°
2026-05-06 14:12 14.66162 102.23506 35453 ft 488 kts 252°
2026-05-06 14:12 14.65126 102.20158 35220 ft 490 kts 252°
2026-05-06 14:12 14.64087 102.16804 34994 ft 491 kts 252°
2026-05-06 14:12 14.63043 102.13437 34760 ft 491 kts 253°
2026-05-06 14:13 14.62003 102.10082 34391 ft 491 kts 252°
2026-05-06 14:13 14.60961 102.06718 33498 ft 494 kts 252°
2026-05-06 14:13 14.59906 102.03319 32638 ft 496 kts 252°
2026-05-06 14:13 14.58869 101.99981 31971 ft 491 kts 252°
2026-05-06 14:14 14.57830 101.96635 31335 ft 488 kts 252°
2026-05-06 14:14 14.56791 101.93295 30780 ft 493 kts 252°
2026-05-06 14:14 14.55579 101.89946 30234 ft 500 kts 247°
2026-05-06 14:14 14.54228 101.86621 29686 ft 502 kts 248°
2026-05-06 14:15 14.52894 101.83297 29049 ft 500 kts 248°
2026-05-06 14:15 14.51570 101.79986 28519 ft 496 kts 248°
2026-05-06 14:15 14.50262 101.76713 27946 ft 491 kts 248°
2026-05-06 14:15 14.48964 101.73467 27410 ft 487 kts 248°
2026-05-06 14:16 14.47688 101.70281 26954 ft 484 kts 248°
2026-05-06 14:16 14.46402 101.67075 26445 ft 482 kts 248°
2026-05-06 14:16 14.45123 101.63885 25934 ft 478 kts 248°
2026-05-06 14:16 14.43855 101.60726 25380 ft 475 kts 248°
2026-05-06 14:17 14.42593 101.57584 24816 ft 471 kts 248°
2026-05-06 14:17 14.41343 101.54472 24266 ft 468 kts 248°
2026-05-06 14:17 14.40101 101.51382 23759 ft 465 kts 248°
2026-05-06 14:17 14.38867 101.48314 23211 ft 462 kts 248°
2026-05-06 14:18 14.38054 101.46292 22829 ft 459 kts 248°
2026-05-06 14:18 14.36424 101.42242 22040 ft 454 kts 248°
2026-05-06 14:18 14.35223 101.39257 21459 ft 446 kts 248°
2026-05-06 14:18 14.34048 101.36341 20770 ft 435 kts 248°
2026-05-06 14:19 14.33285 101.34448 20331 ft 428 kts 248°
2026-05-06 14:19 14.32151 101.31650 19625 ft 420 kts 246°
2026-05-06 14:19 14.30147 101.28297 18688 ft 412 kts 230°
2026-05-06 14:19 14.28145 101.26231 18177 ft 402 kts 219°
2026-05-06 14:20 14.26710 101.25047 17875 ft 393 kts 219°
2026-05-06 14:20 14.24622 101.23286 17455 ft 382 kts 219°
2026-05-06 14:20 14.22577 101.21535 17141 ft 381 kts 219°
2026-05-06 14:20 14.20562 101.19807 16776 ft 378 kts 219°
2026-05-06 14:21 14.18531 101.18070 16455 ft 375 kts 219°
2026-05-06 14:21 14.16516 101.16351 16098 ft 374 kts 219°
2026-05-06 14:21 14.14541 101.14669 15712 ft 370 kts 219°
2026-05-06 14:21 14.12565 101.12987 15251 ft 367 kts 219°
2026-05-06 14:22 14.10612 101.11325 14788 ft 364 kts 219°
2026-05-06 14:22 14.08655 101.09661 14294 ft 360 kts 219°
2026-05-06 14:22 14.06707 101.08104 13963 ft 347 kts 211°
2026-05-06 14:22 14.04629 101.06989 13753 ft 330 kts 200°
2026-05-06 14:23 14.02474 101.06306 13407 ft 320 kts 193°
2026-05-06 14:23 14.00325 101.05743 13089 ft 318 kts 194°
2026-05-06 14:23 13.98192 101.05158 12755 ft 315 kts 194°
2026-05-06 14:23 13.96084 101.04573 12422 ft 312 kts 194°
2026-05-06 14:24 13.94002 101.03997 12116 ft 310 kts 193°
2026-05-06 14:24 13.91909 101.03420 11798 ft 309 kts 193°
2026-05-06 14:24 13.89842 101.02851 11491 ft 307 kts 194°
2026-05-06 14:24 13.87782 101.02286 11182 ft 305 kts 193°
2026-05-06 14:25 13.85755 101.01729 11032 ft 295 kts 194°
2026-05-06 14:25 13.83838 101.01119 10955 ft 283 kts 205°
2026-05-06 14:25 13.82317 100.99916 10745 ft 279 kts 231°
2026-05-06 14:25 13.81457 100.98163 10586 ft 275 kts 257°
2026-05-06 14:26 13.81396 100.96213 10403 ft 273 kts 282°
2026-05-06 14:26 13.81887 100.94323 10063 ft 274 kts 285°
2026-05-06 14:26 13.82395 100.92425 9692 ft 276 kts 285°
2026-05-06 14:26 13.83182 100.90652 9295 ft 277 kts 309°
2026-05-06 14:27 13.84652 100.89404 8920 ft 275 kts 336°
2026-05-06 14:27 13.86485 100.88977 8580 ft 269 kts
2026-05-06 14:27 13.88282 100.89353 8156 ft 262 kts 21°
2026-05-06 14:27 13.89966 100.90030 7737 ft 259 kts 23°
2026-05-06 14:28 13.91646 100.90699 7311 ft 257 kts 21°
2026-05-06 14:28 13.93347 100.91256 6852 ft 257 kts 15°
2026-05-06 14:28 13.95090 100.91674 6393 ft 257 kts 14°
2026-05-06 14:28 13.96811 100.92075 5918 ft 257 kts 14°
2026-05-06 14:29 13.98573 100.92327 5429 ft 257 kts 354°
2026-05-06 14:29 14.00256 100.91742 4967 ft 258 kts 324°
2026-05-06 14:29 14.01415 100.90384 4636 ft 251 kts 294°
2026-05-06 14:29 14.01741 100.88666 4312 ft 243 kts 262°
2026-05-06 14:30 14.01209 100.87065 4007 ft 236 kts 240°
2026-05-06 14:30 14.00409 100.85594 3760 ft 235 kts 236°
2026-05-06 14:30 13.99277 100.84457 3548 ft 229 kts 210°
2026-05-06 14:30 13.97865 100.83748 3352 ft 224 kts 198°
2026-05-06 14:31 13.96386 100.83285 3163 ft 221 kts 193°
2026-05-06 14:31 13.94918 100.82908 2942 ft 216 kts 192°
2026-05-06 14:31 13.93450 100.82525 2617 ft 211 kts 193°
2026-05-06 14:31 13.92131 100.82173 2489 ft 182 kts 192°
2026-05-06 14:32 13.90969 100.81867 2499 ft 173 kts 193°
2026-05-06 14:32 13.89773 100.81554 2501 ft 179 kts 192°
2026-05-06 14:32 13.88556 100.81232 2501 ft 182 kts 193°
2026-05-06 14:32 13.87345 100.80910 2499 ft 182 kts 193°
2026-05-06 14:33 13.86117 100.80585 2501 ft 182 kts 193°
2026-05-06 14:33 13.84890 100.80260 2502 ft 182 kts 193°
2026-05-06 14:33 13.83660 100.79934 2506 ft 181 kts 193°
2026-05-06 14:33 13.82477 100.79620 2499 ft 170 kts 193°
2026-05-06 14:34 13.81344 100.79320 2340 ft 165 kts 193°
2026-05-06 14:34 13.80243 100.79030 2133 ft 158 kts 193°
2026-05-06 14:34 13.79239 100.78762 1942 ft 139 kts 193°
2026-05-06 14:34 13.78330 100.78524 1767 ft 136 kts 193°
2026-05-06 14:35 13.77416 100.78282 1605 ft 133 kts 192°
2026-05-06 14:35 13.76531 100.78048 1430 ft 131 kts 194°
2026-05-06 14:35 13.75639 100.77814 1272 ft 133 kts 193°
2026-05-06 14:35 13.74743 100.77575 1087 ft 132 kts 193°
2026-05-06 14:36 13.73835 100.77338 938 ft 136 kts 193°
2026-05-06 14:36 13.72918 100.77091 758 ft 136 kts 194°
2026-05-06 14:36 13.72018 100.76843 570 ft 134 kts 193°
2026-05-06 14:36 13.71127 100.76614 402 ft 131 kts 193°
2026-05-06 14:37 13.70231 100.76378 220 ft 134 kts 193°
2026-05-06 14:37 13.69338 100.76144 68 ft 133 kts 193°
2026-05-06 14:37 13.68491 100.75922 24 ft 107 kts 194°
2026-05-06 14:37 13.67888 100.75766 16 ft 74 kts 196°
2026-05-06 14:38 13.67530 100.75672 17 ft 29 kts 194°
2026-05-06 14:38 13.67352 100.75621 19 ft 23 kts 200°
2026-05-06 14:38 13.67215 100.75555 21 ft 18 kts 215°
2026-05-06 14:38 13.67125 100.75474 22 ft 12 kts 225°
2026-05-06 14:39 13.67098 100.75399 18 ft 11 kts 295°
2026-05-06 14:39 13.67158 100.75381 19 ft 12 kts 11°
2026-05-06 14:39 13.67271 100.75413 20 ft 21 kts 15°
2026-05-06 14:39 13.67400 100.75448 19 ft 20 kts 14°
2026-05-06 14:40 13.67532 100.75483 19 ft 20 kts 14°
2026-05-06 14:40 13.67665 100.75517 21 ft 12 kts 14°
2026-05-06 14:40 13.67750 100.75520 22 ft 14 kts 332°
2026-05-06 14:40 13.67814 100.75465 19 ft 12 kts 346°
2026-05-06 14:41 13.67913 100.75479 21 ft 17 kts 16°
2026-05-06 14:41 13.68025 100.75512 21 ft 17 kts 15°
2026-05-06 14:41 13.68142 100.75543 21 ft 16 kts 14°
2026-05-06 14:41 13.68228 100.75544 18 ft 12 kts 318°
2026-05-06 14:42 13.68264 100.75461 18 ft 15 kts 284°
2026-05-06 14:42 13.68293 100.75345 21 ft 15 kts 284°
2026-05-06 14:42 13.68320 100.75238 20 ft 15 kts 284°
2026-05-06 14:42 13.68346 100.75135 19 ft 16 kts 284°
2026-05-06 14:43 13.68377 100.75013 20 ft 17 kts 284°
2026-05-06 14:43 13.68399 100.74922 21 ft 15 kts 284°
2026-05-06 14:43 13.68417 100.74855 22 ft 2 kts 286°
2026-05-06 14:43 13.68418 100.74841 19 ft 3 kts 247°
2026-05-06 14:44 13.68399 100.74815 18 ft 4 kts 205°
2026-05-06 14:44 13.68368 100.74804 22 ft 2 kts 195°
2026-05-06 14:44 13.68351 100.74799 20 ft 2 kts 195°
2026-05-06 14:45 13.68337 100.74795 20 ft 0 kts 194°
2026-05-06 14:45 13.68336 100.74795 20 ft 0 kts 194°